Air Resources Laboratory banner image
Air Resources Laboratory web site National Oceanic and Atmospheric Administration (NOAA)

il roundup


Office: LOT

ASUS43 KLOT 151203
RWRIL

ILLINOIS REGIONAL WEATHER ROUNDUP
NATIONAL WEATHER SERVICE CHICAGO/ROMEOVILLE IL
600 AM CST FRI DEC 15 2017

NOTE: "FAIR" INDICATES FEW OR NO CLOUDS BELOW 12,000 FEET WITH NO
SIGNIFICANT WEATHER AND/OR OBSTRUCTIONS TO VISIBILITY.

* THESE STATIONS ARE NOT UNDER NWS QUALITY CONTROL. THEY ALSO MAY NOT
  REPORT WEATHER SUCH AS PRECIPITATION OR FOG.

ILZ001-002-007-009-015-016-024-151300-
NORTHWEST ILLINOIS

CITY           SKY/WX    TMP DP  RH WIND       PRES   REMARKS
MOLINE         PTCLDY    26  19  74 NW7       30.00S WCI  18
6HR MIN TEMP:  26; 6HR MAX TEMP:  29;

STERLING*      CLOUDY    26  17  68 W16       29.96S WCI  14
$$

ILZ003-004-008-010-011-017-018-151300-
NORTH CENTRAL ILLINOIS

CITY           SKY/WX    TMP DP  RH WIND       PRES   REMARKS
ROCKFORD       FLURRIES  25  18  74 W9        29.94S WCI  15
6HR MIN TEMP:  23; 6HR MAX TEMP:  25; 6HR PCP: TRACE;

FREEPORT*      CLOUDY    25  16  67 NW18G25   29.94S WCI  12
DE KALB*       CLOUDY    24  19  78 W10       29.92F WCI  14
$$

ILZ005-006-012>014-019>023-151300-
NORTHEAST ILLINOIS

CITY           SKY/WX    TMP DP  RH WIND       PRES   REMARKS
CHICAGO-OHARE  FLURRIES  26  18  71 W16G22    29.91S WCI  14
6HR MIN TEMP:  21; 6HR MAX TEMP:  26; 6HR PCP: TRACE;

CHICAGO-MIDWAY FLURRIES  26  18  71 W12       29.92F WCI  16
6HR MIN TEMP:  21; 6HR MAX TEMP:  26; 6HR PCP: TRACE;

AURORA         CLOUDY    26  20  77 W10       29.93S WCI  16
6HR MIN TEMP:  20; 6HR MAX TEMP:  26;

LANSING*       CLOUDY    25  19  78 W10       29.94S WCI  15
JOLIET*        CLOUDY    27  20  73 W8        29.94F WCI  19
WAUKEGAN       CLOUDY    24  17  74 W10G17    29.87F WCI  14
6HR MIN TEMP:  21; 6HR MAX TEMP:  25;

DUPAGE AIRPORT CLOUDY    24  19  81 W16       29.91S WCI  11
6HR MIN TEMP:  19; 6HR MAX TEMP:  25;

WHEELING       CLOUDY    25  17  72 W15G30    29.92S WCI  13
6HR MIN TEMP:  24; 6HR MAX TEMP:  26;

NORTHERLY ISL    N/A     26  18  71 W8          N/A  WCI  18
$$

LMZ740>746-151300-
SOUTHERN LAKE MICHIGAN

STATION/POSITION SKY/WX   TEMP    WIND        PRES    VSBY  WAVE
                          AIR SEA DIR/SP/G                  HT/PER
                          (F)     (DEG/KT/KT) (MB)    (MI)  (FT/S)
HARRISON CRIB              26     240/ 19/ 24   N/A
BURNHAM HARBOR             26     250/  9/ 12   N/A
CALUMET HARBOR             24     220/  8/ 14 1012.8S
BURNS HARBOR               25     230/ 12/ 18 1013.9F
MICHIGAN CITY              24     200/ 16/ 19   N/A
$$

ILZ025>027-034>036-040-047-049-050-058-095>099-151300-
WEST-CENTRAL ILLINOIS

CITY           SKY/WX    TMP DP  RH WIND       PRES   REMARKS
QUINCY         CLOUDY    31  24  75 W6        30.05S WCI  25
GALESBURG*     CLOUDY    28  24  83 W14       30.02S WCI  17
MACOMB*        CLOUDY    29  24  80 NW10      30.06R WCI  20
$$

ILZ028>032-037-038-041>044-048-051>054-059>061-151300-
CENTRAL ILLINOIS

CITY           SKY/WX    TMP DP  RH WIND       PRES   REMARKS
BLOOMINGTON    CLOUDY    25  20  81 SW12      30.00S WCI  14
DECATUR        CLOUDY    26  19  74 SW10      30.04S WCI  16
PEORIA         CLOUDY    28  21  75 W10       30.02S WCI  19
6HR MIN TEMP:  25; 6HR MAX TEMP:  28;

LACON*         CLOUDY    28  20  74 W9        29.99F WCI  19
LINCOLN*       CLOUDY    28  22  76 SW5       30.03S WCI  23
SPRINGFIELD    CLOUDY    29  21  72 SW8       30.05S WCI  21
6HR MIN TEMP:  22; 6HR MAX TEMP:  29;

TAYLORVILLE    NOT AVBL
$$

ILZ033-039-045-046-055>057-062-063-151300-
EAST-CENTRAL ILLINOIS

CITY           SKY/WX    TMP DP  RH WIND       PRES   REMARKS
CHAMPAIGN      CLOUDY    25  19  78 SW12      30.02S WCI  14
DANVILLE*      CLOUDY    23  18  81 SW9       29.99S WCI  13
MATTOON        PTCLDY    24  19  81 SW7       30.04S WCI  16
$$

ILZ079-100>102-151300-
SOUTHWEST ILLINOIS

CITY           SKY/WX    TMP DP  RH WIND       PRES   REMARKS
ALTON          CLOUDY    28  23  80 SW8       30.09S WCI  20
BELLEVILLE     PTCLDY    28  20  71 SW7       30.09S WCI  21
CAHOKIA*       CLEAR     30  20  66 S6        30.10S WCI  24
SPARTA*        CLOUDY    30  23  75 CALM      30.13S
$$

ILZ064>066-069>071-074>076-080>082-084>086-088>090-092>094-151300-
SOUTH-CENTRAL ILLINOIS

CITY           SKY/WX    TMP DP  RH WIND       PRES   REMARKS
CARBONDALE     CLOUDY    30  21  69 NW5       30.13R WCI  25
6HR MIN TEMP:  30; 6HR MAX TEMP:  30;

CAIRO*         CLOUDY    30  22  73 CALM      30.15R
EFFINGHAM*     MOCLDY    27  20  75 SW5       30.09S WCI  22
MT. VERNON     CLOUDY    29  21  72 W5        30.11  WCI  24
CENTRALIA*     CLOUDY    30  23  74 W6        30.10R WCI  24
SALEM*         CLOUDY    31  21  67 W7        30.10R WCI  24
METROPOLIS*    CLOUDY    32  21  64 NW9       30.14R WCI  24
$$

ILZ067-068-072-073-078-083-087-091-151300-
SOUTHEAST ILLINOIS

CITY           SKY/WX    TMP DP  RH WIND       PRES   REMARKS
LAWRENCEVILLE  CLOUDY    29  20  69 W8        30.09R WCI  21
FLORA*         CLOUDY    30  20  66 W7        30.10S WCI  23
HARRISBURG*    CLOUDY    30  22  72 W7        30.12S WCI  23
ROBINSON*      CLOUDY    28  19  70 W10       30.09S WCI  18
CARMI*         CLOUDY    30  22  72 W6        30.10S WCI  24
$$

ABBREVIATIONS USED IN REMARKS
   TC - TEMPERATURE IN CELSIUS
  WCI - WIND CHILL INDEX
   HX - HEAT INDEX
  VSB - VISIBILITY
$$



ASUS43 KLOT 151208
RWRIL

ILLINOIS REGIONAL WEATHER ROUNDUP
NATIONAL WEATHER SERVICE CHICAGO/ROMEOVILLE IL
600 AM CST FRI DEC 15 2017

NOTE: "FAIR" INDICATES FEW OR NO CLOUDS BELOW 12,000 FEET WITH NO
SIGNIFICANT WEATHER AND/OR OBSTRUCTIONS TO VISIBILITY.

* THESE STATIONS ARE NOT UNDER NWS QUALITY CONTROL. THEY ALSO MAY NOT
  REPORT WEATHER SUCH AS PRECIPITATION OR FOG.

ILZ001-002-007-009-015-016-024-151300-
NORTHWEST ILLINOIS

CITY           SKY/WX    TMP DP  RH WIND       PRES   REMARKS
MOLINE         PTCLDY    26  19  74 NW7       30.00S WCI  18
6HR MIN TEMP:  26; 6HR MAX TEMP:  29;

STERLING*      CLOUDY    26  17  68 W16       29.96S WCI  14
SAVANNA*       CLOUDY    26  17  69 W7        29.97S WCI  18
$$

ILZ003-004-008-010-011-017-018-151300-
NORTH CENTRAL ILLINOIS

CITY           SKY/WX    TMP DP  RH WIND       PRES   REMARKS
ROCKFORD       FLURRIES  25  18  74 W9        29.94S WCI  15
6HR MIN TEMP:  23; 6HR MAX TEMP:  25; 6HR PCP: TRACE;

FREEPORT*      CLOUDY    25  16  67 NW18G25   29.94S WCI  12
ROCHELLE*      CLOUDY    26  20  79 W9        29.94S WCI  16
DE KALB*       CLOUDY    24  19  78 W10       29.92F WCI  14
PERU*          CLOUDY    27  19  72 W15       29.97S WCI  15
$$

ILZ005-006-012>014-019>023-151300-
NORTHEAST ILLINOIS

CITY           SKY/WX    TMP DP  RH WIND       PRES   REMARKS
CHICAGO-OHARE  FLURRIES  26  18  71 W16G22    29.91S WCI  14
6HR MIN TEMP:  21; 6HR MAX TEMP:  26; 6HR PCP: TRACE;

CHICAGO-MIDWAY FLURRIES  26  18  71 W12       29.92F WCI  16
6HR MIN TEMP:  21; 6HR MAX TEMP:  26; 6HR PCP: TRACE;

AURORA         CLOUDY    26  20  77 W10       29.93S WCI  16
6HR MIN TEMP:  20; 6HR MAX TEMP:  26;

LANSING*       CLOUDY    25  19  78 W10       29.94S WCI  15
JOLIET*        CLOUDY    27  20  73 W8        29.94F WCI  19
WAUKEGAN       CLOUDY    24  17  74 W10G17    29.87F WCI  14
6HR MIN TEMP:  21; 6HR MAX TEMP:  25;

DUPAGE AIRPORT CLOUDY    24  19  81 W16       29.91S WCI  11
6HR MIN TEMP:  19; 6HR MAX TEMP:  25;

KANKAKEE*      CLOUDY    25  17  73 SW12      29.97F WCI  14
WHEELING       CLOUDY    25  17  72 W15G30    29.92S WCI  13
6HR MIN TEMP:  24; 6HR MAX TEMP:  26;

MORRIS*        CLOUDY    26  19  72 W10       29.94F WCI  16
ROMEOVILLE*    CLOUDY    25  19  77 W13       29.93F WCI  14
NORTHERLY ISL    N/A     26  18  71 W8          N/A  WCI  18
$$

LMZ740>746-151300-
SOUTHERN LAKE MICHIGAN

STATION/POSITION SKY/WX   TEMP    WIND        PRES    VSBY  WAVE
                          AIR SEA DIR/SP/G                  HT/PER
                          (F)     (DEG/KT/KT) (MB)    (MI)  (FT/S)
HARRISON CRIB              26     240/ 19/ 24   N/A
BURNHAM HARBOR             26     250/  9/ 12   N/A
CALUMET HARBOR             24     220/  8/ 12 1012.7F
BURNS HARBOR               25     230/ 12/ 18 1013.9F
MICHIGAN CITY              24     200/ 16/ 19   N/A
$$

ILZ025>027-034>036-040-047-049-050-058-095>099-151300-
WEST-CENTRAL ILLINOIS

CITY           SKY/WX    TMP DP  RH WIND       PRES   REMARKS
QUINCY         CLOUDY    31  24  75 W6        30.05S WCI  25
GALESBURG*     CLOUDY    28  24  83 W14       30.02S WCI  17
MACOMB*        CLOUDY    29  24  80 NW10      30.06R WCI  20
JACKSONVILLE*  CLOUDY    29  21  71 SW8       30.05F WCI  21
PITTSFIELD*    CLOUDY    31  24  74 W6        30.07S WCI  25
$$

ILZ028>032-037-038-041>044-048-051>054-059>061-151300-
CENTRAL ILLINOIS

CITY           SKY/WX    TMP DP  RH WIND       PRES   REMARKS
PONTIAC        CLOUDY    27  21  79 SW13      29.98F WCI  16
BLOOMINGTON    CLOUDY    25  20  81 SW12      30.00S WCI  14
DECATUR        CLOUDY    26  19  74 SW10      30.04S WCI  16
PEORIA         CLOUDY    28  21  75 W10       30.02S WCI  19
6HR MIN TEMP:  25; 6HR MAX TEMP:  28;

LACON*         CLOUDY    28  20  74 W9        29.99F WCI  19
LINCOLN*       CLOUDY    28  22  76 SW5       30.03S WCI  23
SPRINGFIELD    CLOUDY    29  21  72 SW8       30.05S WCI  21
6HR MIN TEMP:  22; 6HR MAX TEMP:  29;

TAYLORVILLE    CLOUDY    28  20  72 SW7       30.06R WCI  20
6HR MIN TEMP:  23; 6HR MAX TEMP:  28;

$$

ILZ033-039-045-046-055>057-062-063-151300-
EAST-CENTRAL ILLINOIS

CITY           SKY/WX    TMP DP  RH WIND       PRES   REMARKS
CHAMPAIGN      CLOUDY    25  19  78 SW12      30.02S WCI  14
DANVILLE*      CLOUDY    23  18  81 SW9       29.99S WCI  13
RANTOUL*       CLOUDY    27  21  79 SW9       30.00F WCI  18
MATTOON        PTCLDY    24  19  81 SW7       30.04S WCI  16
PARIS*         CLOUDY    24  19  82 SW8       30.05S WCI  15
$$

ILZ079-100>102-151300-
SOUTHWEST ILLINOIS

CITY           SKY/WX    TMP DP  RH WIND       PRES   REMARKS
ALTON          CLOUDY    28  23  80 SW8       30.09S WCI  20
BELLEVILLE     PTCLDY    28  20  71 SW7       30.09S WCI  21
CAHOKIA*       CLEAR     30  20  66 S6        30.10S WCI  24
SPARTA*        CLOUDY    30  23  75 CALM      30.13S
$$

ILZ064>066-069>071-074>076-080>082-084>086-088>090-092>094-151300-
SOUTH-CENTRAL ILLINOIS

CITY           SKY/WX    TMP DP  RH WIND       PRES   REMARKS
CARBONDALE     CLOUDY    30  21  69 NW5       30.13R WCI  25
6HR MIN TEMP:  30; 6HR MAX TEMP:  30;

CAIRO*         CLOUDY    30  22  73 CALM      30.15R
EFFINGHAM*     MOCLDY    27  20  75 SW5       30.09S WCI  22
MARION         CLOUDY    31  21  65 CALM      30.13R
MT. VERNON     CLOUDY    29  21  72 W5        30.11  WCI  24
CENTRALIA*     CLOUDY    30  23  74 W6        30.10R WCI  24
SALEM*         CLOUDY    31  21  67 W7        30.10R WCI  24
METROPOLIS*    CLOUDY    32  21  64 NW9       30.14R WCI  24
$$

ILZ067-068-072-073-078-083-087-091-151300-
SOUTHEAST ILLINOIS

CITY           SKY/WX    TMP DP  RH WIND       PRES   REMARKS
LAWRENCEVILLE  CLOUDY    29  20  69 W8        30.09R WCI  21
FLORA*         CLOUDY    30  20  66 W7        30.10S WCI  23
FAIRFIELD*     CLOUDY    30  20  67 CALM      30.10R
HARRISBURG*    CLOUDY    30  22  72 W7        30.12S WCI  23
ROBINSON*      CLOUDY    28  19  70 W10       30.09S WCI  18
CARMI*         CLOUDY    30  22  72 W6        30.10S WCI  24
$$

ABBREVIATIONS USED IN REMARKS
   TC - TEMPERATURE IN CELSIUS
  WCI - WIND CHILL INDEX
   HX - HEAT INDEX
  VSB - VISIBILITY
$$



ASUS63 KLOT 151217
RTPLOT
Maximum/Minimum Temperature and Precipitation Table
National Weather Service Chicago/Romeoville IL
617 AM CST Fri Dec 15 2017

High temperature yesterday
Low temperature last 12 hours
Precipitation last 24 hours
Snowfall last 24 hours

.BR LOT 1215 C DH01/TAIRZX/DH06/TAIRZP/PPDRZZ/SFDRZZ

:ID Location                    High   Low     Pcpn  Snowfall
ORD: Chicago-O'Hare           :  27  /  20  /     T  /   T
CNII2: Chicago-Northerly Isl  :  31  /  23  /
MDW: Chicago-Midway           :  30  /  19  /     T
LOTI2: NWS Chicago-Romeoville :  32  /  15  /  0.00  / 0.0
RFD: Rockford Airport         :  28  /  15  /     T  /   T
DPA: DuPage Airport           :  27  /  14  /  0.00
UGN: Waukegan Airport         :  26  /  11  /  0.00
ARR: Aurora/Sugar Grove       :  27  /  13  /  0.00
PWK: Wheeling/CHI Exec        :  27  /  22  /  0.00
VPZ: Valparaiso IN            :  30  /  15  /     T

:Unofficial Supplemental AWOS Locations

DKB: DeKalb                   :  25  /  18  /
JOT: Joliet                   :  30  /  15  /
IKK: Kankakee                 :  30  /  15  /
IGQ: Lansing                  :  30  /  14  /
C09: Morris                   :  29  /  15  /
VYS: Peru                     :  26  /  21  /
PNT: Pontiac                  :  29  /  12  /
RZL: Rensselaer IN            :  32  /  16  /
RPJ: Rochelle                 :  26  /  21  /
.END
:
These data are preliminary and have not undergone final quality
control by the National Climatic Data Center /NCDC/. Therefore...
These data are subject to revision. Final and certified climate data
can be accessed at www.ncdc.noaa.gov.

$$